Louisville, KY

10:34 AM EDT on August 23, 2017 (GMT -0400)
Louisville International-Standiford

Weather History for KSDF - March, 2012

Change the Weather History Date:

Thursday, March 29, 2012

  Actual Average Record
Temperature  
Mean Temperature 63 °F 52 °F  
Max Temperature 73 °F 63 °F 86 °F (1895)
Min Temperature 52 °F 42 °F 18 °F (1887)
Degree Days  
Heating Degree Days 2 13  
Month to date heating degree days 221 512  
Since 1 July heating degree days 2999 3753  
Cooling Degree Days 0 0  
Month to date cooling degree days 65 0  
Year to date cooling degree days 65 0  
Growing Degree Days 12 (Base 50)    
Moisture  
Dew Point 42 °F    
Average Humidity 50    
Maximum Humidity 64    
Minimum Humidity 35    
Precipitation  
Precipitation T in 0.14 in 1.37 in (1965)
Month to date precipitation 6.12 3.89  
Year to date precipitation 11.95 10.31  
Snow  
Snow 0.00 in 0.10 in 6.40 in (1970)
Month to date snowfall 3.5 1.4  
Since 1 July snowfall 7.0 12.4  
Snow Depth 0.00 in    
Sea Level Pressure  
Sea Level Pressure 29.99 in    
Wind  
Wind Speed 5 mph (NE)    
Max Wind Speed 10 mph    
Max Gust Speed 14 mph    
Visibility 10 miles    
Events      
T = Trace of Precipitation, MM = Missing Value Source: NWS Daily Summary

Daily Weather History Graph

Daily Weather History Graph

Search for Another Location

Airport or City:

Trip Planner

Search our weather history database for the weather conditions in past years. The results will help you decide how hot, cold, wet, or windy it might be!

Date:

Astronomy

Mar. 29, 2012 Rise Set
Actual Time 7:31 AM EDT 8:03 PM EDT
Civil Twilight 7:05 AM EDT 8:30 PM EDT
Nautical Twilight 6:34 AM EDT 9:01 PM EDT
Astronomical Twilight 6:02 AM EDT 9:33 PM EDT
Moon 11:44 AM EDT (3/29) 1:50 AM EDT (3/29)
Length of Visible Light 13h 24m
Length of Day
12h 31m
Waxing Crescent, 39% of the Moon is Illuminated
Mar 29
Waxing Crescent
Mar 30
First Quarter
Apr 6
Full
Apr 13
Last Quarter
Apr 21
New

Hourly Weather History & Observations

Time (EDT) Temp. Dew Point Humidity Pressure Visibility Wind Dir Wind Speed Gust Speed Precip Events Conditions
12:56 AM 63.0 °F 46.0 °F 54% 29.96 in 10.0 mi North 3.5 mph - N/A   Clear
1:56 AM 61.0 °F 39.9 °F 46% 29.96 in 10.0 mi NE 4.6 mph - N/A   Clear
2:56 AM 57.9 °F 39.0 °F 49% 29.96 in 10.0 mi Calm Calm - N/A   Partly Cloudy
3:56 AM 59.0 °F 39.0 °F 48% 29.96 in 10.0 mi North 3.5 mph - N/A   Scattered Clouds
4:56 AM 57.0 °F 39.0 °F 51% 29.98 in 10.0 mi North 4.6 mph - N/A   Scattered Clouds
5:56 AM 54.0 °F 39.9 °F 59% 29.99 in 10.0 mi NNE 6.9 mph - N/A   Scattered Clouds
6:56 AM 53.1 °F 39.9 °F 61% 30.01 in 10.0 mi NNE 4.6 mph - N/A   Mostly Cloudy
7:56 AM 53.1 °F 41.0 °F 64% 30.04 in 10.0 mi NE 4.6 mph - N/A   Mostly Cloudy
8:56 AM 55.0 °F 41.0 °F 59% 30.06 in 10.0 mi NNE 5.8 mph - N/A   Mostly Cloudy
9:56 AM 57.9 °F 42.1 °F 56% 30.06 in 10.0 mi ENE 6.9 mph - N/A   Mostly Cloudy
10:56 AM 61.0 °F 43.0 °F 52% 30.07 in 10.0 mi ENE 8.1 mph - N/A   Scattered Clouds
11:56 AM 63.0 °F 43.0 °F 48% 30.06 in 10.0 mi East 9.2 mph - N/A   Scattered Clouds
12:56 PM 66.0 °F 44.1 °F 45% 30.06 in 10.0 mi NE 4.6 mph - N/A   Scattered Clouds
1:56 PM 68.0 °F 44.1 °F 42% 30.03 in 10.0 mi East 4.6 mph - N/A   Scattered Clouds
2:56 PM 70.0 °F 43.0 °F 38% 30.00 in 10.0 mi North 3.5 mph - N/A   Scattered Clouds
3:56 PM 72.0 °F 43.0 °F 35% 29.98 in 10.0 mi North 3.5 mph - N/A   Scattered Clouds
4:56 PM 72.0 °F 42.1 °F 34% 29.95 in 10.0 mi Calm Calm - N/A   Scattered Clouds
5:56 PM 72.0 °F 44.1 °F 37% 29.94 in 10.0 mi NE 3.5 mph - N/A   Scattered Clouds
6:56 PM 70.0 °F 45.0 °F 41% 29.95 in 10.0 mi ENE 8.1 mph - N/A   Scattered Clouds
7:56 PM 68.0 °F 44.1 °F 42% 29.95 in 10.0 mi ENE 8.1 mph - N/A   Scattered Clouds
8:56 PM 66.0 °F 42.1 °F 42% 29.94 in 10.0 mi ENE 6.9 mph - N/A   Scattered Clouds
9:56 PM 64.9 °F 42.1 °F 43% 29.96 in 10.0 mi ENE 6.9 mph - N/A   Mostly Cloudy
10:56 PM 64.0 °F 42.1 °F 45% 29.96 in 10.0 mi ENE 8.1 mph - N/A   Mostly Cloudy
11:56 PM 62.1 °F 44.1 °F 52% 29.96 in 10.0 mi ENE 5.8 mph - N/A   Mostly Cloudy